Flag for Brazil Weather past 2 weeks in Fortaleza, Ceará, Brazil

Now
86 °F

Scattered clouds.


Feels Like: 93 °F
Forecast: 78 / 87 °F
Wind: 13 mph from East

Location: Fortaleza Aeropor-To

Current Time: Apr 18, 2015 at 10:51:43 AM

Latest Report: Apr 18, 2015 at 10:00 AM


Visibility: N/A

Pressure: 29.89 "Hg

Humidity: 66%

Dew point: 73 °F

Location of FortalezaLocation

Historic Weather in Fortaleza — Graph

°F

Fortaleza temperature yesterday

Maximum temperature yesterday: 86 °F (at 10:00 AM)
Minimum temperature yesterday: 79 °F (at 1:00 AM)
Average temperature yesterday: 82 °F

Past Weeks' High & Low Weather Summary

 TemperatureHumidityPressure
High88 °F (Apr 6, 12:00 PM)100% (Apr 3, 1:00 PM)29.98 "Hg (Apr 3, 1:00 PM)
Low41 °F (Apr 3, 1:00 PM)52% (Apr 5, 11:00 AM)29.77 "Hg (Apr 4, 2:00 PM)
Average80 °F77%29.87 "Hg
* Reported Apr 3 9:00 AM — Apr 18 9:00 AM, Fortaleza, Weather by CustomWeather, © 2015

Note: Actual official high and low records may vary slightly from our data, if they occured in-between our weather recording intervals... More about our weather records

Advertising

Fortaleza weather history for previous 24 hours

 ConditionsComfort  
Time TempWeatherWind HumidityBarometerVisibility
9:00 AM
Sat, Apr 18
82 °FScattered clouds.14 mph74%29.89 "HgN/A
8:00 AM82 °FScattered clouds.6 mph74%29.89 "HgN/A
7:00 AM81 °FScattered clouds.7 mph79%29.89 "HgN/A
6:00 AM77 °FScattered clouds.6 mph83%29.86 "HgN/A
5:00 AM77 °FPassing clouds.3 mph89%29.86 "HgN/A
4:00 AM79 °FPassing clouds.6 mph84%29.83 "HgN/A
3:00 AM79 °FPassing clouds.5 mph84%29.86 "HgN/A
2:00 AM81 °FPassing clouds.5 mph79%29.86 "HgN/A
1:00 AM81 °FPassing clouds.6 mph79%29.86 "HgN/A
12:00 AM81 °FPassing clouds.6 mph74%29.89 "HgN/A
11:00 PM
Fri, Apr 17
81 °FPassing clouds.5 mph74%29.89 "HgN/A
10:00 PM81 °FPassing clouds.3 mph74%29.89 "HgN/A
9:00 PM81 °FPassing clouds.6 mph79%29.89 "HgN/A
8:00 PM81 °FClear.5 mph74%29.86 "Hg10 mi
7:00 PM81 °FClear.6 mph74%29.86 "Hg10 mi
6:00 PM82 °FClear.8 mph70%29.83 "Hg10 mi
5:00 PM82 °FPassing clouds.13 mph70%29.83 "HgN/A
4:00 PM84 °FPassing clouds.15 mph66%29.83 "HgN/A
3:00 PM84 °FPassing clouds.17 mph62%29.83 "HgN/A
2:00 PM86 °FScattered clouds.15 mph62%29.86 "HgN/A
1:00 PM84 °FScattered clouds.15 mph70%29.86 "HgN/A
12:00 PM84 °FScattered clouds.16 mph70%29.89 "HgN/A
11:00 AM86 °FScattered clouds.17 mph62%29.92 "HgN/A
10:00 AM86 °FPartly sunny.15 mph62%29.92 "HgN/A
Weather by CustomWeather, © 2015

See weather overviewHow to use our weather pages